Weather in Gegetuy

Russia / Republic of Buryatia     50°38′32″N   105°13′19″E
temp.,
°C
wind,
m/s
gust,
m/s
humid.,
%
clouds,
%
prec.,
mm/h
press.,
hPa
HPBL,
m
8 may, sat
sat823:00+3ne1154100 0.0 101415
02:00+2e015881 0.0 101310
05:000n116775 0.0 101310
08:00+3sse1157100 0.0 1012343
11:00+4se1159100 0.1 1012870
14:00+8ssw2354100 0.1 10091084
17:00+10nne1550100 0.0 10091358
20:00+6nnw4764100 0.0 1011244
9 may, sun
sun923:00+4nw457471 0.0 101477
02:00+2nnw337790 0.0 101445
05:00+2nw227479 0.0 101417
08:00+6sw126319 0.0 1012281
11:00+11ssw455429 0.1 10091173
14:00+14sw253784 0.6 10062117
17:00+12se545376 0.4 1005481
20:00+8ene117857 1.1 100623
10 may, mon
mon1023:00+7n4578100 0.6 1007129
02:00+5nne3484100 0.8 1008238
05:00+4n2377100 1.3 1009279
08:00+4nne2471100 1.3 1011819
11:00+4n3470100 0.6 1012819
14:00+6nnw4650100 1.2 10121609
17:00+7nnw684421 0.0 10121760
20:00+4nw476510 0.0 1014618
11 may, tue
tue1123:00+2wnw4872100 0.0 1017346
02:00+1w347714 0.0 1016103
05:00+1w3677100 0.0 1016201
08:00+4wnw61263100 0.0 10151444
11:00+6nw61054100 0.1 10161629
14:00+9nnw663955 0.1 10151641
17:00+9nnw55390 0.0 10141349
20:00+6nne23530 0.0 101444
12 may, wed
wed1223:00+3n34681 0.0 101649
02:00+2n22650 0.0 101516
05:00+1nnw22681 0.0 101310
08:00+5s115767 0.0 1011306
11:00+9s334551 0.0 1007838
14:00+12e323952 0.0 10051564
17:00+12ene654727 0.1 10041392
20:00+8nne475873 0.1 1007530